CW6353 Weather Reports


Display with metric or nautical units.
time (UTC)temp
F
wind
direction
speed
MPH
gust
MPH
rain 1hr
in
rain 24hr
in
rain mn
in
humidity
%
barometer
mb
20260503224512 70 340 3.0 8.0 0.00 0.00 0.00 31 1017.9
20260503224006 70 340 3.0 8.0 0.00 0.00 0.00 29 1017.9
20260503223509 70 275 5.0 8.0 0.00 0.00 0.00 31 1017.9
20260503223014 70 337 5.0 9.0 0.00 0.00 0.00 31 1017.9
20260503222507 71 315 4.0 10.0 0.00 0.00 0.00 30 1017.9
20260503222007 71 293 5.0 10.0 0.00 0.00 0.00 30 1018.0
20260503221519 72 319 6.0 10.0 0.00 0.00 0.00 30 1018.0
20260503221010 71 334 3.0 9.0 0.00 0.00 0.00 33 1018.0
20260503220508 71 338 3.0 10.0 0.00 0.00 0.00 31 1018.0
20260503220036 72 316 6.0 10.0 0.00 0.00 0.00 32 1018.0
20260503215507 72 5 3.0 10.0 0.00 0.00 0.00 32 1018.1
20260503215004 72 39 5.0 10.0 0.00 0.00 0.00 34 1018.1
20260503214515 72 15 5.0 13.0 0.00 0.00 0.00 33 1018.1
20260503214006 71 313 2.0 13.0 0.00 0.00 0.00 33 1018.2
20260503213505 71 322 8.0 13.0 0.00 0.00 0.00 32 1018.1
20260503213012 72 288 2.0 14.0 0.00 0.00 0.00 33 1018.2
20260503212503 72 302 5.0 14.0 0.00 0.00 0.00 31 1018.3
20260503212002 72 17 4.0 12.0 0.00 0.00 0.00 32 1018.3
20260503211504 71 340 6.0 12.0 0.00 0.00 0.00 33 1018.3
20260503211001 71 40 5.0 11.0 0.00 0.00 0.00 33 1018.4
20260503210502 71 25 4.0 11.0 0.00 0.00 0.00 34 1018.4
20260503210006 70 297 5.0 13.0 0.00 0.00 0.00 32 1018.5
20260503205502 71 302 8.0 13.0 0.00 0.00 0.00 30 1018.6
20260503205002 71 306 5.0 10.0 0.00 0.00 0.00 33 1018.7
20260503204506 71 319 3.0 12.0 0.00 0.00 0.00 32 1018.8
20260503204003 71 360 6.0 12.0 0.00 0.00 0.00 32 1018.9
20260503203504 71 360 7.0 12.0 0.00 0.00 0.00 27 1019.0
20260503203008 71 336 6.0 12.0 0.00 0.00 0.00 31 1019.1
20260503202506 71 322 6.0 12.0 0.00 0.00 0.00 30 1019.2
20260503202004 70 316 7.0 16.0 0.00 0.00 0.00 31 1019.3
20260503201504 70 284 8.0 15.0 0.00 0.00 0.00 30 1019.4
20260503201011 70 15 6.0 12.0 0.00 0.00 0.00 31 1019.4
20260503200502 70 316 6.0 14.0 0.00 0.00 0.00 34 1019.5
20260503200004 70 340 6.0 14.0 0.00 0.00 0.00 32 1019.6
20260503195503 70 360 9.0 14.0 0.00 0.00 0.00 32 1019.7
20260503195002 69 40 9.0 15.0 0.00 0.00 0.00 34 1019.7
20260503194507 69 294 7.0 15.0 0.00 0.00 0.00 32 1019.8
20260503194002 70 321 3.0 14.0 0.00 0.00 0.00 34 1019.8
20260503193502 69 324 5.0 15.0 0.00 0.00 0.00 33 1019.8
20260503193011 69 313 9.0 15.0 0.00 0.00 0.00 31 1019.9
20260503192505 70 321 6.0 14.0 0.00 0.00 0.00 34 1020.1
20260503192008 69 340 7.0 14.0 0.00 0.00 0.00 36 1020.2
20260503191520 69 61 5.0 17.0 0.00 0.00 0.00 35 1020.3
20260503191006 69 299 10.0 17.0 0.00 0.00 0.00 31 1020.4
20260503190508 69 9 8.0 20.0 0.00 0.00 0.00 33 1020.5
20260503190011 69 325 4.0 20.0 0.00 0.00 0.00 33 1020.4
20260503185503 69 324 10.0 16.0 0.00 0.00 0.00 34 1020.5
20260503185006 69 28 8.0 15.0 0.00 0.00 0.00 35 1020.6
20260503184504 68 340 7.0 14.0 0.00 0.00 0.00 36 1020.6
20260503184004 68 284 7.0 15.0 0.00 0.00 0.00 31 1020.6
20260503183505 68 295 8.0 18.0 0.00 0.00 0.00 35 1020.8
20260503183006 68 340 10.0 18.0 0.00 0.00 0.00 31 1020.8
20260503182503 68 317 9.0 18.0 0.00 0.00 0.00 34 1020.8
20260503182006 68 302 7.0 15.0 0.00 0.00 0.00 35 1020.9
20260503181505 67 330 6.0 19.0 0.00 0.00 0.00 34 1020.9
20260503181006 67 340 9.0 19.0 0.00 0.00 0.00 37 1020.9
20260503180504 67 260 9.0 17.0 0.00 0.00 0.00 34 1021.0
20260503180020 67 5 8.0 17.0 0.00 0.00 0.00 33 1021.0
20260503175507 67 317 8.0 15.0 0.00 0.00 0.00 33 1021.1
20260503175003 67 258 8.0 15.0 0.00 0.00 0.00 32 1021.1
20260503174519 67 238 5.0 15.0 0.00 0.00 0.00 35 1021.3
20260503174004 67 340 5.0 16.0 0.00 0.00 0.00 37 1021.3
20260503173504 67 311 9.0 16.0 0.00 0.00 0.00 32 1021.4
20260503173007 67 319 7.0 15.0 0.00 0.00 0.00 38 1021.5
20260503172504 66 309 9.0 17.0 0.00 0.00 0.00 35 1021.6
20260503172006 66 316 9.0 17.0 0.00 0.00 0.00 34 1021.7
20260503171508 67 303 12.0 16.0 0.00 0.00 0.00 36 1021.7
20260503171003 66 340 9.0 16.0 0.00 0.00 0.00 36 1021.8
20260503170509 66 279 7.0 15.0 0.00 0.00 0.00 36 1021.7
20260503151006 63 304 5.0 13.0 0.00 0.01 0.00 39 1022.2
20260503150509 63 291 4.0 10.0 0.00 0.01 0.00 47 1022.2
20260503131003 59 340 1.0 4.0 0.00 0.01 0.00 59 1021.3
20260503130508 59 57 2.0 4.0 0.00 0.01 0.00 60 1021.2
20260503110503 44 50 2.0 6.0 0.00 0.01 0.00 84 1020.3
20260503090504 47 64 3.0 5.0 0.00 0.01 0.00 76 1019.7
20260503081510 49 69 3.0 6.0 0.00 0.03 0.00 71 1019.5
20260503081004 49 76 3.0 6.0 0.00 0.03 0.00 70 1019.4
20260503080503 49 54 4.0 6.0 0.00 0.03 0.00 69 1019.3
20260503072503 51 46 4.0 10.0 0.00 0.04 0.00 67 1019.0
20260503072003 51 68 4.0 9.0 0.00 0.04 0.00 66 1018.9
20260503071510 51 51 4.0 8.0 0.00 0.04 0.00 67 1018.9
20260503071003 50 15 3.0 8.0 0.00 0.04 0.00 69 1018.8
20260503070505 49 59 4.0 10.0 0.00 0.05 0.00 69 1018.7
20260503055004 47 16 1.0 2.0 0.00 0.05 0.00 79 1018.5
20260503054517 47 16 1.0 3.0 0.00 0.05 0.00 79 1018.6
20260503054006 47 16 2.0 3.0 0.00 0.05 0.00 78 1018.5
20260503053502 46 16 3.0 4.0 0.00 0.05 0.00 78 1018.5
20260503053014 46 12 2.0 5.0 0.00 0.05 0.00 79 1018.5
20260503052503 46 328 2.0 5.0 0.00 0.05 0.00 80 1018.4
20260503052004 46 326 2.0 5.0 0.00 0.05 0.00 80 1018.4
20260503051503 47 323 3.0 5.0 0.00 0.05 0.00 80 1018.3
20260503051002 47 340 2.0 5.0 0.00 0.05 0.00 79 1018.3
20260503050503 47 334 2.0 5.0 0.00 0.05 0.00 79 1018.2
20260503050025 47 326 2.0 5.0 0.00 0.05 0.00 78 1018.2
20260503045504 47 327 2.0 4.0 0.00 0.05 0.05 79 1018.2
20260503045010 47 317 2.0 4.0 0.00 0.05 0.05 79 1018.1
20260503044504 47 315 2.0 4.0 0.00 0.05 0.05 79 1018.1
20260503044007 47 308 2.0 4.0 0.00 0.05 0.05 78 1018.1
20260503043503 47 318 2.0 4.0 0.00 0.05 0.05 79 1018.1
20260503043006 47 311 2.0 4.0 0.00 0.05 0.05 78 1018.1
20260503042506 47 312 2.0 4.0 0.00 0.05 0.05 77 1018.1
20260503042003 47 319 2.0 5.0 0.00 0.05 0.05 78 1018.1
20260503041522 47 327 1.0 5.0 0.00 0.05 0.05 78 1018.1
20260503041003 47 306 2.0 3.0 0.00 0.05 0.05 78 1018.0
20260503040503 47 323 1.0 3.0 0.00 0.05 0.05 77 1018.0
20260503040007 47 316 2.0 3.0 0.00 0.05 0.05 77 1018.0
20260503035503 48 328 1.0 3.0 0.00 0.05 0.05 77 1017.9
20260503035004 48 319 2.0 3.0 0.00 0.05 0.05 76 1017.9
20260503034508 48 319 2.0 3.0 0.00 0.05 0.05 75 1017.9
20260503034005 48 324 2.0 5.0 0.00 0.05 0.05 75 1017.9
20260503033507 48 317 2.0 5.0 0.00 0.05 0.05 74 1018.0
20260503033023 49 320 1.0 3.0 0.00 0.05 0.05 75 1017.9
20260503032507 49 341 1.0 3.0 0.00 0.05 0.05 75 1017.9
20260503032007 49 307 1.0 4.0 0.00 0.05 0.05 75 1018.0
20260503031515 49 323 1.0 4.0 0.00 0.05 0.05 74 1017.9
20260503031007 49 304 3.0 5.0 0.00 0.05 0.05 73 1017.9
20260503030507 49 322 2.0 5.0 0.00 0.05 0.05 72 1017.9
20260503030012 49 308 2.0 4.0 0.00 0.05 0.05 75 1017.9
20260503025508 49 304 2.0 4.0 0.00 0.06 0.05 75 1017.8
20260503025003 49 317 2.0 4.0 0.00 0.06 0.05 75 1017.8
20260503024508 49 307 2.0 5.0 0.00 0.06 0.05 75 1017.8
20260503024003 49 318 3.0 5.0 0.00 0.06 0.05 75 1017.7
20260503023507 49 317 3.0 5.0 0.00 0.06 0.05 74 1017.8
20260503023006 49 321 2.0 5.0 0.00 0.06 0.05 75 1017.8
20260503022509 49 327 3.0 5.0 0.00 0.06 0.05 77 1017.7
20260503022002 49 327 2.0 4.0 0.00 0.06 0.05 75 1017.7
20260503021518 49 313 2.0 4.0 0.00 0.06 0.05 76 1017.6
20260503021007 49 341 2.0 4.0 0.00 0.06 0.05 76 1017.4
20260503020504 50 336 1.0 5.0 0.00 0.06 0.05 76 1017.4
20260503020022 50 315 2.0 5.0 0.00 0.07 0.05 74 1017.4
20260503015504 50 326 2.0 5.0 0.00 0.07 0.05 75 1017.3
20260503015010 50 323 1.0 3.0 0.00 0.07 0.05 74 1017.2
20260503014536 50 15 2.0 3.0 0.00 0.07 0.05 73 1017.1
20260503014007 51 14 1.0 3.0 0.00 0.07 0.05 73 1017.0
20260503013504 51 14 1.0 3.0 0.00 0.08 0.05 72 1016.8
20260503013021 51 15 2.0 3.0 0.00 0.08 0.05 70 1016.8
20260503012505 52 14 0.0 2.0 0.00 0.08 0.05 71 1016.7
20260503012008 52 14 1.0 2.0 0.00 0.09 0.05 69 1016.8
20260503011515 53 14 0.0 1.0 0.00 0.09 0.05 67 1016.6
20260503011004 53 14 0.0 1.0 0.00 0.09 0.05 65 1016.5
20260503010510 54 15 0.0 1.0 0.00 0.09 0.05 65 1016.5
20260503010008 55 15 0.0 2.0 0.00 0.09 0.05 63 1016.4
20260503005507 55 15 1.0 2.0 0.00 0.09 0.05 62 1016.4
20260503005007 56 15 0.0 2.0 0.00 0.09 0.05 60 1016.3
20260503004505 57 15 0.0 4.0 0.00 0.09 0.05 58 1016.2
20260503004010 57 15 1.0 5.0 0.00 0.09 0.05 54 1016.2
20260503003505 58 33 3.0 5.0 0.00 0.09 0.05 57 1016.2
20260503003025 59 26 1.0 3.0 0.00 0.09 0.05 55 1016.1
20260503002510 60 27 2.0 3.0 0.00 0.09 0.05 47 1016.1
20260503002007 61 9 2.0 3.0 0.00 0.09 0.05 44 1016.1
20260503001508 61 338 0.0 4.0 0.00 0.10 0.05 44 1016.1
20260503001004 62 26 2.0 5.0 0.00 0.10 0.05 44 1016.0
20260503000506 63 340 2.0 8.0 0.00 0.10 0.05 42 1015.9
20260503000016 63 340 2.0 9.0 0.00 0.10 0.05 42 1015.9
20260502235505 63 5 3.0 9.0 0.00 0.10 0.05 38 1015.9
20260502235009 64 17 5.0 13.0 0.00 0.10 0.05 38 1015.7
20260502234518 64 17 7.0 13.0 0.00 0.10 0.05 36 1015.6
20260502234004 65 333 6.0 11.0 0.00 0.10 0.05 36 1015.6
20260502233504 65 13 7.0 16.0 0.00 0.10 0.05 34 1015.5
20260502233004 65 5 8.0 16.0 0.00 0.10 0.05 34 1015.5
20260502232504 66 329 5.0 12.0 0.00 0.10 0.05 36 1015.4
20260502232003 67 21 8.0 14.0 0.00 0.10 0.05 33 1015.3
20260502231502 67 312 8.0 15.0 0.00 0.10 0.05 35 1015.2
20260502231005 67 17 7.0 15.0 0.00 0.10 0.05 33 1015.2
20260502230504 67 338 7.0 16.0 0.00 0.10 0.05 33 1015.3
20260502230004 67 321 9.0 16.0 0.00 0.10 0.05 32 1015.3
20260502225502 68 338 8.0 15.0 0.00 0.10 0.05 33 1015.2
20260502225004 67 319 6.0 13.0 0.00 0.10 0.05 33 1015.2